DELTA 1 DEB

Satellite information

Favourite Embed

Satellite Type and Status

DEBRISIN ORBIT

Key statistics

Satellite DELTA 1 DEB at a glance.

Uptime

18489

Days in orbit

Revolutions

≈ 14.4

Per day

Orbit

SSO

Sun Synchronous Orbit

Inclination

97.7

Latest

Satellite identification and parameters

Extended collection of information and parameters for DELTA 1 DEB.

Object identification

Identified? True

Debris? True

Object name: DELTA 1 DEB

International designator: 1975-004BB

Object number (NORAD): 8969

Object ID (CCSDS): 8969

Country: UNITED STATES OF AMERICA (US)

Current information (Y/N): Y

RCS size: SMALL

Orbital parameters

Period: 100.173 minutes

Inclination: 97.6973 deg

SMA: 7144.853 km

Apoapsis: 849.708 km

Periapsis: 683.729 km

RAAN: 352.4959 deg

Eccentricy: 0.01161526

Argument of periapsis: 251.7627 deg

Mean anomaly: 107.0892 deg

Mean motion: 14.3751635 rev/day

Mean motion (dot): 0.00001824 rev/day2

B* drag term: 0.00057583126 1/REarth

Two-line elements (TLE)

Creation date: Sept. 4, 2025, 10:13 a.m.

Reference frame: TEME

Reference center: EARTH

Epoch: Sept. 4, 2025, 6:24 a.m. UTC

TLE line 0: 0 DELTA 1 DEB

TLE line 1: 1 08969U 75004BB 25247.26688754 .00001824 00000-0 57583-3 0 9990

TLE line 2: 2 08969 97.6973 352.4959 0116153 251.7627 107.0892 14.37516350574771

Live tracking on map

Real-time ground track for satellite DELTA 1 DEB.

In-orbit conjunctions

A list of the most updated potential collisions computed for object DELTA 1 DEB.

Target Orbit TCA Probability of collision Miss distance Type
CZ-6A DEB LEO 2025-01-04 23:18:06 0.001698038 116.0 (m) DEBRIS
CZ-6A DEB SSO 2024-12-15 19:18:36 0.0003929718 80.0 (m) DEBRIS
CZ-6A DEB SSO 2024-11-14 13:30:03 0.0003611119 740.0 (m) DEBRIS

Associated space launch

Earth observation satellite

DELTA 1 DEB was lifted into orbit during the mission ‘Delta 2910 | Landsat 2’, on board a Delta 2910 space rocket.

The launch took place on Jan. 22, 1975, 5:55 p.m. from Space Launch Complex 2W.

For more information about the launch, click the button.

Launch to space Delta 2910 | Landsat 2
Delta 2910 | Landsat 2

Agency: N/A

Status: Launch Successful

Launch date: Jan. 22, 1975, 5:55 p.m. UTC

Rocket: Delta 2910

Launch pad: Space Launch Complex 2W

Location: Vandenberg SFB, CA, USA

...

Latest news about this satellite

There are no fresh news available about this satellite. Check back as we update our databases every day.


Newsletter sign-up

Weekly statistics, charts and insights to help you stay on top of the space industry.